{"data":{"norad_id":67747,"epoch":"2026-09-20T08:12:44.754624Z","epoch_age_seconds":102832,"freshness":"FRESH","line1":"1 67747U 26027B   26263.34218466  .00004235  00000+0  19840-3 0  9999","line2":"2 67747  97.5170  31.0634 0008612 241.7744 118.2622 15.20229358 33415","mean_motion":15.20229358,"eccentricity":0.0008612,"inclination_deg":97.517,"raan_deg":31.0634,"arg_perigee_deg":241.7744,"mean_anomaly_deg":118.2622,"bstar":0.0001984,"rev_number":3341,"period_min":94.722549095779,"perigee_km":499.22031763639,"apogee_km":511.07608806979,"semimajor_km":6883.2852028531,"source":"CELESTRAK","updated_at":"2026-09-21T09:00:16.824389Z"}}